Location: Ash Swamp
(41.5170°N, 74.6157°W)
Time: 02:47:46
(UTC+00:00)

BREEZE-M DEB (TANK) - Pass Details

Date: 14 July 2020
Orbit: 428 x 13237 km, 46.0° (Epoch: 14 August)

Event Time Altitude Azimuth Distance (km) Brightness Sun altitude
Rises 08:45:37 0° 292° (WNW) 3,078 6.3 -8.8°
Reaches altitude 10° 08:48:16 10° 294° (WNW) 1,745 5.1 -8.4°
Maximum altitude 08:51:28 75° 20° (NNE) 446 2.5 -7.9°
Drops below altitude 10° 08:54:31 10° 107° (ESE) 1,665 5.8 -7.5°
Sets 08:56:58 0° 109° (ESE) 2,907 7.0 -7.1°
